Escatawpa, MS

5:13 PM CDT on September 29, 2016 (GMT -0500)
Lott International

Weather History for KPQL - November, 2013

Change the Weather History Date:

Sunday, November 17, 2013

  Actual Average Record
Temperature  
Mean Temperature 74 °F -  
Max Temperature 78 °F 70 °F 81 °F (1971)
Min Temperature 69 °F 51 °F 30 °F (1997)
Cooling Degree Days 8    
Growing Degree Days 24 (Base 50)    
Moisture  
Dew Point 71 °F    
Average Humidity 91    
Maximum Humidity 100    
Minimum Humidity 78    
Precipitation  
Precipitation 0.29 in - - ()
Sea Level Pressure  
Sea Level Pressure 29.97 in    
Wind  
Wind Speed 6 mph (South)    
Max Wind Speed 12 mph    
Max Gust Speed 17 mph    
Visibility 7 miles    
Events Fog , Rain    
Averages and records for this station are not official NWS values.
T = Trace of Precipitation, MM = Missing Value Source: NWS Daily Summary

Daily Weather History Graph

Daily Weather History Graph

Search for Another Location

Airport or City:

Trip Planner

Search our weather history database for the weather conditions in past years. The results will help you decide how hot, cold, wet, or windy it might be!

Date:

Astronomy

Nov. 17, 2013 Rise Set
Actual Time 6:21 AM CST 4:56 PM CST
Civil Twilight 5:56 AM CST 5:21 PM CST
Nautical Twilight 5:27 AM CST 5:50 PM CST
Astronomical Twilight 4:58 AM CST 6:19 PM CST
Moon 5:12 PM CST (11/17) 6:16 AM CST (11/17)
Length of Visible Light 11h 25m
Length of Day
10h 34m
Full, 100% of the Moon is Illuminated
Nov 17
Full
Nov 25
Last Quarter
Dec 2
New
Dec 9
First Quarter
Dec 17
Full

Hourly Weather History & Observations

Time (CST) Temp. Dew Point Humidity Pressure Visibility Wind Dir Wind Speed Gust Speed Precip Events Conditions
12:07 AM 69.8 °F 66.2 °F 88% 30.00 in 10.0 mi ESE 8.1 mph - N/A   Overcast
12:20 AM 69.8 °F 68.0 °F 94% 30.00 in 2.5 mi ESE 6.9 mph - N/A   Overcast
12:39 AM 69.8 °F 68.0 °F 94% 29.99 in 4.0 mi ESE 8.1 mph - N/A   Overcast
12:53 AM 70.0 °F 68.0 °F 93% 29.99 in 2.5 mi ESE 5.8 mph - N/A   Overcast
1:32 AM 69.8 °F 68.0 °F 94% 29.98 in 3.0 mi ESE 6.9 mph - 0.00 in Rain Light Rain
1:49 AM 69.8 °F 68.0 °F 94% 29.97 in 2.5 mi ESE 8.1 mph - 0.00 in Rain Light Rain
1:53 AM 70.0 °F 68.0 °F 93% 29.98 in 3.0 mi ESE 8.1 mph - 0.00 in   Overcast
2:49 AM 69.8 °F 69.8 °F 100% 29.96 in 2.5 mi ESE 5.8 mph - 0.00 in   Overcast
2:53 AM 70.0 °F 69.1 °F 97% 29.96 in 3.0 mi SE 9.2 mph - 0.00 in   Overcast
3:53 AM 71.1 °F 69.1 °F 93% 29.96 in 8.0 mi ESE 6.9 mph - N/A   Overcast
4:53 AM 70.0 °F 70.0 °F 100% 29.95 in 3.0 mi Calm Calm - 0.00 in Rain Light Rain
5:43 AM 71.6 °F 69.8 °F 94% 29.94 in 3.0 mi SSE 6.9 mph - 0.00 in   Overcast
5:50 AM 71.6 °F 69.8 °F 94% 29.94 in 2.5 mi South 5.8 mph - 0.00 in Rain Light Rain
5:53 AM 71.1 °F 70.0 °F 96% 29.95 in 2.5 mi South 5.8 mph - 0.00 in Rain Light Rain
6:01 AM 71.6 °F 69.8 °F 94% 29.94 in 4.0 mi SE 11.5 mph - 0.00 in Rain Light Rain
6:53 AM 70.0 °F 69.1 °F 97% 29.96 in 4.0 mi SSE 3.5 mph - 0.00 in   Overcast
7:07 AM 69.8 °F 69.8 °F 100% 29.95 in 2.5 mi SSE 4.6 mph - N/A   Overcast
7:16 AM 69.8 °F 69.8 °F 100% 29.95 in 1.0 mi SE 4.6 mph - N/A   Overcast
7:24 AM 69.8 °F 69.8 °F 100% 29.96 in 0.5 mi SE 3.5 mph - N/A Fog Fog
7:40 AM 71.6 °F 69.8 °F 94% 29.96 in 0.2 mi SE 3.5 mph - N/A Fog Fog
7:53 AM 71.1 °F 71.1 °F 100% 29.97 in 0.2 mi SSE 3.5 mph - N/A Fog Fog
8:15 AM 73.4 °F 71.6 °F 94% 29.97 in 0.8 mi South 3.5 mph - N/A   Mist
8:21 AM 73.4 °F 71.6 °F 94% 29.97 in 2.5 mi South 3.5 mph - N/A   Overcast
8:25 AM 73.4 °F 73.4 °F 100% 29.98 in 4.0 mi South 4.6 mph - N/A   Overcast
8:53 AM 73.9 °F 72.0 °F 93% 30.00 in 10.0 mi SSW 9.2 mph - N/A   Overcast
9:14 AM 75.2 °F 71.6 °F 89% 30.00 in 10.0 mi SSW 6.9 mph - N/A   Mostly Cloudy
9:22 AM 75.2 °F 71.6 °F 89% 30.00 in 10.0 mi SW 8.1 mph - N/A   Overcast
9:29 AM 75.2 °F 71.6 °F 89% 30.00 in 10.0 mi SSW 6.9 mph 16.1 mph N/A   Overcast
9:53 AM 77.0 °F 72.0 °F 84% 30.01 in 10.0 mi SSW 5.8 mph - N/A   Overcast
10:53 AM 77.0 °F 72.0 °F 84% 30.00 in 10.0 mi SW 8.1 mph 16.1 mph N/A   Overcast
11:08 AM 78.8 °F 71.6 °F 78% 29.99 in 10.0 mi SSW 8.1 mph - N/A   Overcast
11:15 AM 77.0 °F 71.6 °F 83% 29.99 in 10.0 mi South 9.2 mph - N/A   Overcast
11:35 AM 75.2 °F 71.6 °F 89% 29.98 in 10.0 mi South 9.2 mph - N/A   Overcast
11:44 AM 75.2 °F 71.6 °F 89% 29.97 in 10.0 mi Variable 6.9 mph - N/A   Overcast
11:53 AM 75.9 °F 71.1 °F 85% 29.98 in 10.0 mi SSW 8.1 mph - N/A   Overcast
12:00 PM 75.2 °F 71.6 °F 89% 29.97 in 10.0 mi SSW 5.8 mph - N/A   Overcast
12:07 PM 77.0 °F 71.6 °F 83% 29.97 in 10.0 mi Variable 5.8 mph - N/A   Overcast
12:31 PM 77.0 °F 71.6 °F 83% 29.96 in 10.0 mi SSW 8.1 mph - N/A   Overcast
12:40 PM 77.0 °F 71.6 °F 83% 29.95 in 10.0 mi SSW 5.8 mph - N/A   Overcast
12:53 PM 78.1 °F 72.0 °F 81% 29.95 in 10.0 mi South 10.4 mph 16.1 mph N/A   Mostly Cloudy
1:13 PM 78.8 °F 71.6 °F 78% 29.94 in 10.0 mi SSW 10.4 mph - N/A   Mostly Cloudy
1:31 PM 78.8 °F 71.6 °F 78% 29.93 in 10.0 mi SW 10.4 mph 17.3 mph N/A   Overcast
1:45 PM 77.0 °F 71.6 °F 83% 29.93 in 10.0 mi SSW 10.4 mph 16.1 mph N/A   Overcast
1:53 PM 77.0 °F 71.1 °F 82% 29.94 in 10.0 mi South 9.2 mph 17.3 mph N/A   Overcast
2:10 PM 77.0 °F 71.6 °F 83% 29.93 in 10.0 mi Variable 4.6 mph - N/A   Overcast
2:46 PM 75.2 °F 71.6 °F 89% 29.93 in 10.0 mi SSW 4.6 mph - N/A   Overcast
2:53 PM 75.9 °F 71.1 °F 85% 29.94 in 10.0 mi South 8.1 mph - N/A   Overcast
3:53 PM 75.9 °F 72.0 °F 87% 29.94 in 10.0 mi South 5.8 mph - N/A   Overcast
4:16 PM 75.2 °F 71.6 °F 89% 29.93 in 10.0 mi SSW 6.9 mph - N/A   Overcast
4:24 PM 75.2 °F 71.6 °F 89% 29.93 in 10.0 mi South 6.9 mph - N/A   Overcast
4:31 PM 75.2 °F 71.6 °F 89% 29.94 in 10.0 mi South 6.9 mph - N/A   Mostly Cloudy
4:53 PM 75.0 °F 72.0 °F 90% 29.95 in 10.0 mi South 5.8 mph - N/A   Overcast
5:37 PM 73.4 °F 71.6 °F 94% 29.95 in 10.0 mi South 6.9 mph - N/A   Overcast
5:53 PM 75.0 °F 72.0 °F 90% 29.96 in 10.0 mi Variable 5.8 mph - N/A   Overcast
6:53 PM 73.9 °F 72.0 °F 93% 29.98 in 10.0 mi SSW 4.6 mph - N/A   Overcast
7:30 PM 73.4 °F 71.6 °F 94% 29.98 in 10.0 mi Variable 4.6 mph - N/A   Overcast
7:53 PM 73.9 °F 72.0 °F 93% 29.99 in 10.0 mi Variable 3.5 mph - N/A   Overcast
8:37 PM 73.4 °F 71.6 °F 94% 29.99 in 6.0 mi Calm Calm - 0.00 in Rain Light Rain
8:53 PM 73.0 °F 72.0 °F 96% 30.00 in 9.0 mi SSW 4.6 mph - 0.00 in   Overcast
9:07 PM 73.4 °F 71.6 °F 94% 29.99 in 9.0 mi SSW 3.5 mph - N/A   Overcast
9:39 PM 73.4 °F 71.6 °F 94% 29.98 in 8.0 mi South 5.8 mph - N/A   Overcast
9:53 PM 73.9 °F 72.0 °F 93% 30.00 in 10.0 mi Variable 4.6 mph - N/A   Overcast
10:08 PM 73.4 °F 73.4 °F 100% 29.99 in 9.0 mi SSW 5.8 mph - N/A   Overcast
10:53 PM 73.0 °F 72.0 °F 96% 29.99 in 3.0 mi SSW 5.8 mph - 0.03 in   Overcast
11:07 PM 73.4 °F 71.6 °F 94% 29.99 in 2.0 mi SW 5.8 mph - 0.08 in Rain Heavy Rain
11:12 PM 73.4 °F 71.6 °F 94% 29.99 in 1.8 mi SSW 3.5 mph - 0.11 in Rain Heavy Rain
11:15 PM 73.4 °F 71.6 °F 94% 29.99 in 2.0 mi SSW 3.5 mph - 0.11 in Rain Light Rain
11:24 PM 73.4 °F 71.6 °F 94% 29.99 in 10.0 mi SSW 4.6 mph - 0.11 in   Overcast
11:33 PM 73.4 °F 71.6 °F 94% 29.99 in 4.0 mi SW 3.5 mph - 0.12 in Rain Light Rain
11:38 PM 73.4 °F 71.6 °F 94% 29.98 in 1.8 mi SSW 5.8 mph - 0.15 in Rain Heavy Rain
11:53 PM 73.0 °F 72.0 °F 96% 29.99 in 2.5 mi SSW 3.5 mph - 0.26 in Rain Rain
11:57 PM 73.4 °F 71.6 °F 94% 29.98 in 3.0 mi SSW 3.5 mph - 0.02 in Rain Heavy Rain